Location: Brunnen
(48.6541°N, 10.9920°E)
Time: 07:34:27
(UTC+00:00)

EXPRESS MD2 - Pass Details

Date: 01 June 2020
Orbit: 262 x 4025 km, 49.9° (Epoch: 04 July)

Event Time Altitude Azimuth Distance (km) Brightness Sun altitude
Rises 21:59:49 0° 264° (W) 2,522 6.9 -17.2°
Reaches altitude 10° 22:01:25 10° 265° (W) 1,861 6.2 -17.3°
Maximum altitude 22:05:31 82° 353° (N) 865 4.3 -17.5°
Drops below altitude 10° 22:14:15 10° 82° (E) 3,842 7.5 -17.9°
Sets 22:18:51 0° 84° (E) 5,505 8.3 -18.1°
